Overview Statistics Trail Chart Weather Telemetry Raw packets
 

This is the latest recevied weather packets stored in our database for station/object N8TWM-13. If no packets are shown the sender has not sent any weather packets the latest 10 day(s).

<< 8 9 10 11 12 13 14 >>
Time Temp. Humidity Pressure Rain* Wind** Luminosity Snow
1788552816 28.89° C 67% 1014.9 hPa 0 mm - 498 W/m² -
1788552512 28.89° C 70% 1015 hPa 0 mm - 340 W/m² -
1788552210 29.44° C 67% 1015.4 hPa 0 mm - 302 W/m² -
1788551905 28.89° C 67% 1015.1 hPa 0 mm - 293 W/m² -
1788551603 28.33° C 67% 1015.6 hPa 0 mm - 348 W/m² -
1788551324 28.89° C 69% 1015.5 hPa 0 mm - 467 W/m² -
1788550998 28.89° C 68% 1015.5 hPa 0 mm - 434 W/m² -
1788550693 28.33° C 69% 1015.6 hPa 0 mm - 527 W/m² -
1788550389 27.78° C 70% 1015.7 hPa 0 mm - 439 W/m² -
1788550083 27.22° C 69% 1016.1 hPa 0 mm - 366 W/m² -
1788549779 27.22° C 72% 1016 hPa 0 mm - 337 W/m² -
1788549475 26.67° C 72% 1016.3 hPa 0 mm - 374 W/m² -
1788549172 26.67° C 72% 1016.4 hPa 0 mm - 337 W/m² -
1788548868 26.11° C 72% 1016.5 hPa 0 mm - 314 W/m² -
1788548563 26.11° C 72% 1016.5 hPa 0 mm - 300 W/m² -
1788548260 25.56° C 71% 1016.8 hPa 0 mm - 272 W/m² -
1788547954 25.56° C 74% 1017.2 hPa 0 mm - 287 W/m² -
1788547653 26.11° C 73% 1017.1 hPa 0 mm - 279 W/m² -
1788547349 25.56° C 73% 1017.6 hPa 0 mm - 302 W/m² -
1788547044 25.56° C 75% 1017.4 hPa 0 mm - 285 W/m² -
1788546739 25° C 75% 1017.3 hPa 0 mm - 291 W/m² -
1788546434 25° C 76% 1017.7 hPa 0 mm - 289 W/m² -
1788546129 25° C 78% 1017.9 hPa 0 mm - 293 W/m² -
1788545825 25° C 79% 1017.9 hPa 0 mm - 304 W/m² -
1788545524 25° C 79% 1018.5 hPa 0 mm - 267 W/m² -

* Rain latest hour (hover to see other rain measurements)
** Current wind speed in m/s (hover to see current wind gust speed)